User: anonymous   Login
Location: Irma
(52.9170°N, 111.2330°W)
Time: 05:48:37
(UTC-06:00)
Language:

Cosmos 2279 Rocket - Orbit

View from above orbital plane
View from above orbital plane
View from above satellite
View from above satellite

Ground track
Ground track

The orbit data is extracted from the following two-line orbital elements,

1 23093U 94024B   17082.74542278 +.00000028 +00000-0 +12491-4 0  9994
2 23093 082.9501 178.0410 0008996 238.4658 121.5621 13.77719605619429
Epoch (UTC): 23 March 2017 17:53:24
Eccentricity: 0.0008996
inclination: 82.9501°
perigee height: 965 km
apogee height: 978 km
right ascension of ascending node: 178.0410°
argument of perigee: 238.4658°
revolutions per day: 13.77719605
mean anomaly at epoch: 121.5621°
orbit number at epoch: 61942

The dashed part of the orbit path shows where the satellite is in the earth's shadow,  

DLR